FW8143 Weather Reports


time (UTC)temp
F
wind
direction
speed
knots
gust
knots
rain 1hr
in
rain 24hr
in
rain mn
in
humidity
%
barometer
mb
20260503072355 42 117 5.2 8.7 0.00 0.01 0.00 71 1029.8
20260503071854 42 96 4.3 8.7 0.00 0.01 0.00 70 1029.8
20260503071616 42 112 4.3 9.6 0.00 0.01 0.00 70 1029.8
20260503070855 42 77 5.2 9.6 0.00 0.01 0.00 69 1029.9
20260503070355 42 104 4.3 7.8 0.00 0.01 0.00 69 1029.9
20260503060330 43 89 3.5 6.1 0.00 0.01 0.00 68 1029.8
20260503054824 44 132 1.7 4.3 0.00 0.01 0.01 66 1029.8
20260503054324 44 96 1.7 5.2 0.00 0.01 0.01 66 1029.8
20260503053825 44 107 2.6 7.0 0.00 0.01 0.01 66 1029.8
20260503053324 44 102 2.6 7.0 0.00 0.01 0.01 65 1029.7
20260503053045 44 82 3.5 7.8 0.00 0.01 0.01 64 1029.7
20260503052321 44 139 3.5 7.8 0.00 0.01 0.01 64 1029.7
20260503051821 44 99 3.5 7.0 0.00 0.01 0.01 63 1029.7
20260503051320 45 101 3.5 7.8 0.00 0.01 0.01 63 1029.6
20260503050820 45 115 3.5 7.8 0.00 0.01 0.01 62 1029.7
20260503050321 45 87 3.5 7.8 0.00 0.01 0.01 62 1029.6
20260503045821 45 82 4.3 7.8 0.00 0.01 0.01 61 1029.6
20260503045316 45 111 5.2 9.6 0.00 0.01 0.01 61 1029.6
20260503044817 45 99 5.2 9.6 0.00 0.01 0.01 61 1029.6
20260503044317 46 98 4.3 8.7 0.00 0.01 0.01 61 1029.6
20260503043817 46 159 3.5 7.8 0.00 0.01 0.01 61 1029.6
20260503043317 46 117 2.6 7.8 0.00 0.01 0.01 60 1029.6
20260503042817 46 96 1.7 6.1 0.00 0.01 0.01 60 1029.6
20260503042317 47 109 2.6 10.4 0.00 0.01 0.01 61 1029.6
20260503041817 47 172 2.6 10.4 0.00 0.01 0.01 60 1029.6
20260503041317 47 142 3.5 9.6 0.00 0.01 0.01 59 1029.4
20260503041034 47 150 4.3 9.6 0.00 0.01 0.01 57 1029.6
20260503040313 48 180 3.5 7.8 0.00 0.01 0.01 52 1029.4
20260503035812 48 126 1.7 7.8 0.00 0.01 0.01 47 1029.4
20260503035312 49 153 1.7 4.3 0.00 0.01 0.01 44 1029.3
20260503035031 49 115 1.7 4.3 0.00 0.01 0.01 44 1029.2
20260503034313 49 135 1.7 7.8 0.00 0.01 0.01 46 1029.2
20260503033812 49 103 2.6 8.7 0.00 0.01 0.01 46 1029.1
20260503033312 49 136 3.5 8.7 0.00 0.01 0.01 48 1028.9
20260503032813 50 153 5.2 11.3 0.00 0.01 0.01 48 1028.8
20260503032305 50 188 6.1 12.2 0.00 0.01 0.01 47 1028.8
20260503031759 50 196 6.1 13.0 0.00 0.01 0.01 46 1028.7
20260503031254 51 167 3.5 13.0 0.00 0.01 0.01 40 1028.7
20260503031014 51 175 2.6 6.1 0.00 0.01 0.01 38 1028.6
20260503030241 51 148 2.6 6.1 0.00 0.01 0.01 36 1028.4
20260503025958 51 167 2.6 6.1 0.00 0.01 0.01 36 1028.3
20260503025230 52 146 2.6 7.0 0.00 0.01 0.01 36 1028.2
20260503024724 52 150 3.5 7.0 0.00 0.01 0.01 35 1028.2
20260503024217 53 148 3.5 6.1 0.00 0.01 0.01 35 1028.1
20260503023712 53 119 3.5 6.1 0.00 0.01 0.01 35 1027.9
20260503023434 53 143 2.6 6.1 0.00 0.01 0.01 35 1027.9
20260503022708 54 144 2.6 7.0 0.00 0.01 0.01 34 1027.9
20260503022208 54 156 3.5 7.0 0.00 0.01 0.01 33 1027.9
20260503021708 55 144 2.6 6.1 0.00 0.01 0.01 32 1027.9
20260503021430 55 142 0.9 3.5 0.00 0.01 0.01 32 1027.9
20260503020706 56 213 0.9 4.3 0.00 0.01 0.01 29 1027.8
20260503020206 56 239 1.7 4.3 0.00 0.01 0.01 30 1027.8
20260503015704 56 93 2.6 7.8 0.00 0.01 0.01 30 1027.8
20260503015202 57 74 4.3 12.2 0.00 0.01 0.01 30 1027.8
20260503014702 57 163 5.2 12.2 0.00 0.01 0.01 29 1027.8
20260503014203 58 128 5.2 12.2 0.00 0.01 0.01 29 1027.8
20260503013927 58 124 5.2 13.0 0.00 0.01 0.01 28 1027.7
20260503013427 59 81 6.1 13.0 0.00 0.01 0.01 27 1027.6
20260503012702 60 171 6.1 14.8 0.00 0.01 0.01 26 1027.6
20260503012202 60 151 7.0 14.8 0.00 0.01 0.01 25 1027.6
20260503011702 61 186 6.1 10.4 0.00 0.01 0.01 25 1027.4
20260503011426 61 232 5.2 9.6 0.00 0.01 0.01 25 1027.4
20260503010655 62 246 5.2 9.6 0.00 0.01 0.01 25 1027.3
20260503010150 62 252 5.2 9.6 0.00 0.01 0.01 24 1027.3
20260503005644 62 272 4.3 9.6 0.00 0.01 0.01 25 1027.3
20260503005403 62 198 2.6 7.8 0.00 0.01 0.01 24 1027.3
20260503004631 62 184 2.6 7.8 0.00 0.01 0.01 24 1027.3
20260503004126 62 281 1.7 7.8 0.00 0.01 0.01 23 1027.3
20260503003620 62 338 2.6 8.7 0.00 0.01 0.01 23 1027.3
20260503003555 62 180 4.3 11.3 0.00 0.01 0.01 23 1027.3
20260503002828 61 240 4.3 11.3 0.00 0.02 0.01 24 1027.2
20260503002102 62 178 5.2 11.3 0.00 0.02 0.01 24 1027.2
20260503001556 62 186 3.5 11.3 0.00 0.02 0.01 23 1027.2
20260503001050 62 250 2.6 7.8 0.00 0.02 0.01 23 1027.3
20260503000544 62 236 3.5 8.7 0.00 0.02 0.01 23 1027.3
20260503000038 62 182 2.6 8.7 0.00 0.02 0.01 24 1027.3
20260503000014 62 279 2.6 6.1 0.00 0.03 0.01 23 1027.3
20260502235245 62 223 1.7 7.8 0.00 0.04 0.01 24 1027.3
20260502234519 63 210 2.6 8.7 0.00 0.05 0.01 23 1027.3
20260502234014 63 323 4.3 10.4 0.00 0.07 0.01 22 1027.3
20260502233508 63 233 4.3 10.4 0.00 0.07 0.01 24 1027.3
20260502233002 63 170 2.6 7.8 0.00 0.08 0.01 23 1027.3
20260502232456 64 90 2.6 7.0 0.00 0.09 0.01 24 1027.3
20260502231950 64 307 4.3 10.4 0.00 0.10 0.01 22 1027.3
20260502231445 65 229 4.3 12.2 0.00 0.10 0.01 22 1027.2
20260502230938 65 212 5.2 13.0 0.00 0.11 0.01 22 1027.2
20260502230436 65 236 6.1 13.0 0.00 0.11 0.01 22 1027.3
20260502225940 65 264 4.3 13.0 0.00 0.11 0.01 23 1027.2
20260502225437 65 327 2.6 7.0 0.00 0.12 0.01 23 1027.2
20260502224936 65 310 1.7 7.0 0.00 0.12 0.01 24 1027.2
20260502224436 65 311 1.7 5.2 0.00 0.12 0.01 25 1027.2
20260502223936 65 5 2.6 9.6 0.00 0.12 0.01 24 1027.2
20260502223438 65 335 3.5 9.6 0.00 0.12 0.01 24 1027.4
20260502222936 65 265 3.5 8.7 0.00 0.12 0.01 25 1027.4
20260502222436 65 344 5.2 13.9 0.00 0.12 0.01 24 1027.6
20260502221936 65 271 4.3 13.9 0.00 0.12 0.01 23 1027.6
20260502221436 65 211 3.5 8.7 0.00 0.13 0.01 26 1027.6
20260502220937 65 303 3.5 8.7 0.00 0.13 0.01 24 1027.6
20260502220920 65 301 3.5 9.6 0.00 0.13 0.01 24 1027.7
20260502220158 65 5 4.3 10.4 0.00 0.13 0.01 25 1027.8
20260502215435 65 252 5.2 10.4 0.00 0.13 0.01 26 1027.8
20260502215415 65 232 5.2 11.3 0.00 0.13 0.01 25 1027.8
20260502214657 65 139 4.3 11.3 0.00 0.13 0.01 25 1028.1
20260502213932 65 275 2.6 9.6 0.00 0.13 0.01 27 1028.1
20260502213425 65 119 4.3 10.4 0.00 0.13 0.01 27 1028.2
20260502212919 65 193 5.2 11.3 0.00 0.13 0.01 26 1028.4
20260502212413 65 182 5.2 11.3 0.00 0.13 0.01 26 1028.4
20260502211908 65 240 4.3 9.6 0.00 0.13 0.01 26 1028.6
20260502211402 64 257 2.6 9.6 0.00 0.13 0.01 28 1028.6
20260502210856 64 217 3.5 10.4 0.00 0.13 0.01 28 1028.6
20260502210349 64 243 5.2 12.2 0.00 0.13 0.01 30 1028.8
20260502205843 63 186 3.5 12.2 0.00 0.13 0.01 31 1028.7
20260502205338 62 165 2.6 7.0 0.00 0.13 0.01 31 1028.8
20260502204831 61 197 2.6 6.1 0.00 0.13 0.01 31 1028.9
20260502204325 61 83 3.5 7.8 0.00 0.13 0.01 30 1028.9
20260502203819 60 233 3.5 8.7 0.00 0.13 0.01 34 1029.1
20260502203313 60 165 5.2 12.2 0.00 0.13 0.01 33 1029.1
20260502202807 60 201 4.3 12.2 0.00 0.13 0.01 34 1029.2
20260502202754 60 192 2.6 9.6 0.00 0.13 0.01 31 1029.2
20260502201755 60 167 2.6 8.7 0.00 0.13 0.01 33 1029.2
20260502201249 60 146 3.5 8.7 0.00 0.13 0.01 32 1029.2
20260502201005 60 180 4.3 10.4 0.00 0.13 0.01 33 1029.2
20260502200246 60 194 4.3 10.4 0.00 0.13 0.01 35 1029.3
20260502195746 59 250 2.6 7.8 0.00 0.13 0.01 37 1029.2
20260502195246 58 275 3.5 10.4 0.00 0.13 0.01 35 1029.3
20260502194745 58 246 3.5 10.4 0.00 0.13 0.01 37 1029.4
20260502194514 58 98 5.2 11.3 0.00 0.13 0.01 37 1029.4
20260502194004 58 241 5.2 11.3 0.00 0.13 0.01 36 1029.6
20260502193246 58 204 2.6 9.6 0.00 0.13 0.01 39 1029.6
20260502192745 57 163 2.6 7.8 0.00 0.13 0.01 38 1029.6
20260502192245 56 103 2.6 7.0 0.00 0.13 0.01 43 1029.6
20260502191746 56 64 2.6 7.8 0.00 0.13 0.01 40 1029.7
20260502191243 56 192 3.5 11.3 0.00 0.13 0.01 41 1029.7
20260502190743 56 258 4.3 11.3 0.00 0.13 0.01 40 1029.7
20260502190245 55 243 3.5 8.7 0.00 0.13 0.01 42 1029.7
20260502185739 54 310 3.5 7.8 0.00 0.13 0.01 43 1029.8
20260502185240 53 250 2.6 7.8 0.00 0.13 0.01 45 1029.9
20260502184740 52 240 3.5 9.6 0.00 0.13 0.01 46 1030.1
20260502184239 52 252 3.5 9.6 0.00 0.13 0.01 44 1030.1
20260502183739 52 312 3.5 7.0 0.00 0.13 0.01 44 1030.1
20260502183240 52 302 3.5 9.6 0.00 0.13 0.01 45 1030.1
20260502182741 52 285 3.5 10.4 0.00 0.13 0.01 46 1030.1
20260502182500 52 305 4.3 10.4 0.00 0.13 0.01 46 1030.2
20260502181741 52 279 6.1 12.2 0.00 0.13 0.01 45 1030.2
20260502181236 53 257 6.1 12.2 0.00 0.13 0.01 44 1030.2
20260502181005 53 338 5.2 11.3 0.00 0.13 0.01 44 1030.1
20260502180236 54 342 3.5 10.4 0.00 0.13 0.01 45 1030.2
20260502170159 53 225 3.5 8.7 0.00 0.13 0.01 39 1030.2
20260502164135 51 83 3.5 8.7 0.00 0.13 0.01 42 1030.3
20260502163629 51 162 4.3 9.6 0.00 0.13 0.01 47 1030.3
20260502163123 50 58 3.5 9.6 0.00 0.13 0.01 43 1030.3
20260502162617 49 144 3.5 9.6 0.00 0.13 0.01 48 1030.3
20260502162111 48 130 3.5 9.6 0.00 0.13 0.01 47 1030.2
20260502161605 47 101 2.6 8.7 0.00 0.13 0.01 50 1030.2
20260502161058 46 57 2.6 8.7 0.00 0.13 0.01 52 1030.2
20260502160815 45 152 2.6 8.7 0.00 0.13 0.01 56 1030.2
20260502160318 44 350 2.6 6.1 0.00 0.13 0.01 63 1030.1
20260502151959 39 338 4.3 8.7 0.00 0.13 0.01 95 1030.2
20260502151726 38 25 3.5 7.0 0.00 0.13 0.01 95 1030.2
20260502150947 38 18 3.5 7.0 0.00 0.13 0.01 95 1030.2
20260502150441 37 351 4.3 8.7 0.00 0.13 0.01 95 1030.2
20260502130723 31 46 3.5 7.0 0.00 0.13 0.01 93 1029.7
20260502130217 31 50 3.5 7.0 0.00 0.13 0.01 92 1029.7
20260502123649 31 52 1.7 4.3 0.00 0.13 0.01 93 1029.4
20260502123149 31 29 1.7 5.2 0.00 0.13 0.01 93 1029.3
20260502122649 31 95 2.6 7.0 0.00 0.13 0.01 93 1029.2
20260502122411 31 82 4.3 7.8 0.00 0.13 0.01 93 1029.2
20260502121649 32 106 5.2 7.8 0.00 0.13 0.01 93 1029.2
20260502121149 32 86 5.2 7.8 0.00 0.13 0.01 93 1029.2
20260502120911 32 114 5.2 7.8 0.00 0.13 0.01 93 1029.2
20260502120149 32 75 4.3 7.0 0.00 0.13 0.01 93 1029.2
20260502115649 32 88 4.3 7.0 0.00 0.13 0.01 93 1029.2
20260502115149 33 83 3.5 6.1 0.00 0.13 0.01 93 1029.3
20260502114908 33 85 1.7 5.2 0.00 0.13 0.01 93 1029.2
20260502114149 33 80 0.9 4.3 0.00 0.14 0.01 93 1029.4
20260502113650 33 66 1.7 5.2 0.00 0.14 0.01 93 1029.6
20260502113147 34 61 2.6 6.1 0.00 0.14 0.01 93 1029.6
20260502112647 34 53 3.5 6.1 0.00 0.14 0.01 93 1029.6
20260502112143 34 62 4.3 7.0 0.00 0.15 0.01 93 1029.6
20260502111641 34 79 4.3 7.0 0.00 0.15 0.01 93 1029.4
20260502111402 34 88 3.5 7.0 0.00 0.15 0.01 94 1029.6
20260502110638 35 96 3.5 6.1 0.00 0.15 0.01 94 1029.6
20260502110131 35 72 2.6 5.2 0.00 0.15 0.01 94 1029.6
20260502105625 35 61 2.6 4.3 0.00 0.15 0.01 94 1029.6
20260502105118 35 24 2.6 4.3 0.00 0.16 0.01 94 1029.6
20260502104613 35 5 3.5 6.1 0.00 0.16 0.01 94 1029.6
20260502104107 35 12 2.6 6.1 0.00 0.16 0.01 94 1029.6
20260502103600 35 65 2.6 6.1 0.00 0.16 0.01 94 1029.3
20260502103054 35 5 1.7 6.1 0.00 0.16 0.01 94 1029.3
20260502102811 35 50 0.9 3.5 0.00 0.16 0.01 94 1029.3
20260502102043 35 45 0.9 2.6 0.00 0.17 0.01 94 1029.3
20260502101757 35 50 0.9 3.5 0.00 0.17 0.01 94 1029.2
20260502101250 35 35 1.7 3.5 0.00 0.17 0.01 94 1029.3
20260502100524 35 11 0.9 3.5 0.00 0.17 0.01 94 1029.2
20260502091514 36 17 0.9 2.6 0.00 0.17 0.01 94 1028.8
20260502091015 36 17 1.7 2.6 0.00 0.17 0.01 94 1028.8
20260502090512 36 19 2.6 5.2 0.00 0.17 0.01 94 1028.7